Location: Fort Worth, Tx
(32.7431°N, 97.3695°W)
Time: 04:45:45
(UTC-04:00)

Vanguard 3 - Pass Details

Date: 27 February 2024
Orbit: 510 x 3234 km, 33.3° (Epoch: 24 April)

Event Time Altitude Azimuth Distance (km) Brightness Sun altitude
Rises 22:02:14 0° 253° (WSW) 6,604 12.6 -33.7°
Reaches altitude 10° 22:06:15 10° 253° (WSW) 5,808 12.1 -34.5°
Maximum altitude 22:25:47 86° 167° (SSE) 3,215 9.8 -38.5°
Enters shadow 22:30:30 63° 85° (E) 3,363 9.8 -39.4°
